[[{"header":{"parameterUnit":"m.s-1","parameterCategory":1,"la1":30.2991,"la2":30.254,"lo1":-89.0895,"lo2":-89.0444,"dy":0.0017,"dx":0.0017,"nx":28,"ny":28,"refTime":"2024-11-22T03:00:00:Z","depth":0,"parameterNumber":2,"parameterNumberName":"U-component_of_WINDS"},"data":[0,0,0,0,0,0,0,0,0,0,0,0,0,0,0,0,0,0,0,0,0,0,0,0,0,0,0,0,0,0,0,0,0,0,0,0,0,0,0,0,0,0,0,0,0,0,0,0,0,0,0,0,0,0,0,0,0,0,2.1325,2.1325,0,2.1342,2.1342,2.1342,2.1317,2.1316,2.1315,2.1314,2.1331,2.1333,2.1334,0,0,0,0,0,0,0,0,0,0,0,0,0,2.1272,2.1273,2.1325,2.1325,2.1326,2.1342,2.1342,2.1342,2.1317,2.1316,2.1315,2.1314,2.1331,2.1333,2.1334,0,0,0,0,0,0,0,0,0,0,0,0,0,2.1293,2.1274,2.1325,2.1315,2.1314,2.1342,2.1342,2.1343,2.1317,2.1316,2.1314,2.1313,2.133,2.1332,2.1334,2.1373,0,0,2.134,2.1341,0,0,0,0,0,0,0,0,2.1292,2.1295,2.1316,2.1316,2.1315,2.1326,2.133,2.1353,2.1317,2.1316,2.1314,2.1312,2.1331,2.1333,2.1339,2.1374,2.1375,2.134,2.1342,2.1342,2.1343,0,0,0,0,0,0,0,2.129,2.1294,2.1332,2.1316,2.1316,2.131,2.1311,2.1334,2.1331,2.1316,2.1314,2.1316,2.133,2.1337,2.1339,2.1375,2.134,2.1342,2.1343,2.1344,2.1445,2.1447,0,0,0,0,0,0,2.129,2.1293,2.1331,2.1332,2.13,2.1312,2.1313,2.1324,2.133,2.133,2.1318,2.1315,2.1334,2.1337,2.1339,2.1386,2.1342,2.1344,2.1345,2.1444,2.1445,2.1447,0,0,0,0,0,0,2.1289,2.1294,2.1331,2.1312,2.1316,2.1314,2.1326,2.1325,2.1331,2.1332,2.1331,2.1325,2.1333,2.1337,2.1365,2.1387,2.1345,2.1347,2.1442,2.1444,2.1446,2.148,0,0,0,0,0,0,2.1287,2.1293,2.1308,2.1313,2.1317,2.1356,2.1327,2.1326,2.1335,2.1332,2.1338,2.1338,2.1332,2.1363,2.1367,2.1389,2.1348,2.144,2.1443,2.1446,2.1477,2.1483,2.1489,0,0,0,0,0,2.1286,2.1316,2.1308,2.1313,2.1335,2.1357,2.136,2.1353,2.1337,2.1351,2.1352,2.1338,2.1384,2.1366,2.1371,2.1393,2.1439,2.1442,2.1445,2.1475,2.1482,2.1489,0,0,0,0,0,0,2.1313,2.1316,2.1308,2.1341,2.1349,2.1353,2.1371,2.1361,2.1373,2.137,2.1361,2.1362,2.1394,2.1396,2.1376,2.1432,2.1408,2.1413,2.1429,2.1436,2.1442,2.1441,2.135,0,0,0,0,0,2.1323,2.1341,2.1343,2.1372,2.1376,2.1373,2.1382,2.1376,2.1384,2.1387,2.139,2.1398,2.1415,2.1426,2.144,2.1478,2.1479,2.1496,2.1501,2.1506,2.151,2.1532,2.1539,2.1458,2.1458,2.1458,0,0,2.1344,2.1348,2.1359,2.1377,2.1383,2.1402,2.1376,2.1396,2.1411,2.139,2.1418,2.142,2.1429,2.1463,2.1478,2.1466,2.1533,2.151,2.1514,2.1516,2.1536,2.1544,2.155,2.1461,2.146,2.146,0,0,2.1391,2.1396,2.1421,2.1427,2.1436,2.1434,2.1441,2.1446,2.1447,2.1475,2.1461,2.1478,2.1506,2.1513,2.1521,2.1573,2.1561,2.1578,2.1608,2.1629,2.1636,2.1641,2.1661,2.1668,2.1582,2.1583,2.1583,0,2.1416,2.1443,2.1435,2.1457,2.1466,2.145,2.1476,2.1482,2.1496,2.1503,2.1489,2.1526,2.153,2.1566,2.1579,2.1585,2.1593,2.1577,2.1635,2.1641,2.1646,2.1665,2.1672,2.1585,2.1584,2.1584,2.1584,0,2.1473,2.1493,2.1512,2.1526,2.1537,2.1561,2.1558,2.157,2.1564,2.1564,2.1593,2.1598,2.1615,2.1623,2.1616,2.1658,2.1651,2.1637,2.1613,2.1656,2.1674,2.1681,2.1587,2.1587,2.1586,2.1586,0,0,2.1537,2.1548,2.1555,2.1562,2.1572,2.1587,2.1611,2.1628,2.1639,2.1649,2.167,2.1695,2.1682,2.1691,2.1685,2.1704,2.1747,2.1687,2.1687,2.1699,2.1795,2.1806,2.1814,2.1739,2.174,2.1741,2.1794,0,2.1585,2.1626,2.1621,2.1661,2.168,2.1665,2.1686,2.1695,2.1696,2.1712,2.1713,2.1731,2.1713,2.1718,2.1736,2.1738,2.1766,2.1734,2.1759,2.176,2.1757,2.1823,2.1834,2.1884,2.1801,2.1802,2.1803,0,2.1646,2.166,2.1702,2.171,2.1718,2.1737,2.1752,2.1768,2.1778,2.1778,2.1788,2.178,2.1805,2.1781,2.1816,2.1794,2.1804,2.1807,2.1809,2.1811,2.1784,2.1828,2.19,2.1907,2.1814,2.1813,2.1812,0,2.169,2.1719,2.1748,2.1754,2.1764,2.1778,2.1783,2.1792,2.1803,2.1817,2.1824,2.184,2.185,2.1863,2.186,2.1842,2.1896,2.1871,2.1897,2.1897,2.1909,2.1908,2.1984,2.1915,2.1915,2.1914,2.1914,0,2.1744,2.1771,2.1768,2.1786,2.1815,2.1809,2.1839,2.1842,2.1851,2.187,2.1858,2.1876,2.187,2.1889,2.1886,2.1916,2.192,2.1921,2.192,2.1923,2.1923,2.1929,2.1926,2.1916,2.1916,2.1916,2.1915,0,2.1798,2.1797,2.1828,2.1836,2.1838,2.186,2.1867,2.1884,2.1885,2.1909,2.1914,2.1915,2.1936,2.1935,2.1958,2.1957,2.1994,2.1989,2.1991,2.199,2.2016,2.2014,2.2099,2.211,2.2033,2.2034,2.2034,0,2.1833,2.1853,2.1863,2.1875,2.1882,2.1901,2.1912,2.1908,2.192,2.1934,2.195,2.197,2.1986,2.202,2.2024,2.2042,2.2037,2.2066,2.204,2.2042,2.2039,2.2038,2.2041,2.2071,2.2072,2.2073,2.2073,0,2.1895,2.1894,2.1911,2.1928,2.1943,2.1956,2.1968,2.1979,2.1975,2.199,2.2012,2.2024,2.2049,2.2069,2.2087,2.2092,2.2083,2.2082,2.2089,2.2091,2.2092,2.2093,2.2005,2.208,2.2079,2.2078,2.2078,2.2078,2.1941,2.1959,2.197,2.1989,2.1998,2.201,2.2027,2.2031,2.2049,2.2068,2.2065,2.2089,2.2101,2.2123,2.2131,2.2151,2.214,2.215,2.2153,2.2156,2.2159,2.2089,2.2154,2.2154,2.2154,2.2153,2.2153,0,2.2004,2.201,2.2029,2.2046,2.2062,2.2052,2.2065,2.2079,2.2101,2.2113,2.2129,2.2154,2.2175,2.218,2.22,2.2215,2.2211,2.222,2.2219,2.2221,2.2167,2.2159,2.2223,2.2223,2.2223,2.2223,2.2223,2.2223,2.2038,2.2069,2.2069,2.2104,2.211,2.2134,2.2143,2.2155,2.2164,2.2193,2.221,2.2213,2.2223,2.2243,2.2262,2.2263,2.2271,2.2282,2.2282,2.2231,2.2224,2.2218,2.2211,2.2284,2.2284,2.2334,2.2335,2.2335]},{"header":{"parameterUnit":"m.s-1","parameterCategory":1,"la1":30.2991,"la2":30.254,"lo1":-89.0895,"lo2":-89.0444,"dy":0.0017,"dx":0.0017,"nx":28,"ny":28,"refTime":"2024-11-22T03:00:00:Z","depth":0,"parameterNumber":3,"parameterNumberName":"V-component_of_WINDS"},"data":[0,0,0,0,0,0,0,0,0,0,0,0,0,0,0,0,0,0,0,0,0,0,0,0,0,0,0,0,0,0,0,0,0,0,0,0,0,0,0,0,0,0,0,0,0,0,0,0,0,0,0,0,0,0,0,0,0,0,-3.4891,-3.4892,0,-3.4983,-3.4984,-3.4985,-3.5011,-3.5011,-3.501,-3.501,-3.5101,-3.5103,-3.5106,0,0,0,0,0,0,0,0,0,0,0,0,0,-3.4734,-3.4736,-3.489,-3.4892,-3.4893,-3.4983,-3.4984,-3.4986,-3.5011,-3.5011,-3.501,-3.501,-3.51,-3.5103,-3.5107,0,0,0,0,0,0,0,0,0,0,0,0,0,-3.4811,-3.4737,-3.489,-3.4917,-3.492,-3.4983,-3.4984,-3.4986,-3.5011,-3.5011,-3.501,-3.5009,-3.5099,-3.5103,-3.5107,-3.5149,0,0,-3.512,-3.5122,0,0,0,0,0,0,0,0,-3.4807,-3.4817,-3.4912,-3.4915,-3.4919,-3.4985,-3.4962,-3.504,-3.5012,-3.4977,-3.501,-3.5009,-3.5062,-3.507,-3.5089,-3.5153,-3.5157,-3.5121,-3.5123,-3.5125,-3.5126,0,0,0,0,0,0,0,-3.4802,-3.4813,-3.4927,-3.4913,-3.4917,-3.4923,-3.4933,-3.4977,-3.5022,-3.498,-3.4982,-3.4993,-3.5064,-3.5084,-3.5091,-3.5159,-3.5121,-3.5124,-3.5127,-3.5129,-3.5264,-3.5265,0,0,0,0,0,0,-3.4792,-3.4809,-3.4924,-3.493,-3.486,-3.4927,-3.4938,-3.4964,-3.5022,-3.503,-3.4993,-3.4993,-3.5077,-3.5086,-3.5094,-3.5148,-3.5125,-3.5129,-3.5132,-3.5263,-3.5264,-3.5265,0,0,0,0,0,0,-3.4789,-3.4802,-3.492,-3.487,-3.4885,-3.493,-3.496,-3.4967,-3.4987,-3.5032,-3.504,-3.5006,-3.5077,-3.5088,-3.5136,-3.5152,-3.5131,-3.5135,-3.5262,-3.5263,-3.5265,-3.5256,0,0,0,0,0,0,-3.4784,-3.4801,-3.4818,-3.487,-3.4888,-3.4961,-3.4961,-3.4969,-3.4995,-3.4996,-3.5046,-3.5054,-3.5077,-3.5129,-3.514,-3.5157,-3.5138,-3.526,-3.5262,-3.5264,-3.5255,-3.5257,-3.5259,0,0,0,0,0,-3.4778,-3.481,-3.4818,-3.4832,-3.491,-3.4962,-3.4972,-3.5,-3.4996,-3.5013,-3.5043,-3.5052,-3.5148,-3.5134,-3.5146,-3.5165,-3.526,-3.5262,-3.5264,-3.5254,-3.5256,-3.5258,0,0,0,0,0,0,-3.4756,-3.4817,-3.4827,-3.4877,-3.4914,-3.4966,-3.4988,-3.5001,-3.5039,-3.5039,-3.507,-3.5081,-3.5127,-3.5151,-3.5134,-3.521,-3.5204,-3.5209,-3.5192,-3.5195,-3.5197,-3.519,-3.5142,0,0,0,0,0,-3.4758,-3.4796,-3.4847,-3.4886,-3.4904,-3.4943,-3.4967,-3.4985,-3.5024,-3.504,-3.5073,-3.511,-3.5148,-3.5173,-3.5211,-3.5259,-3.527,-3.5278,-3.528,-3.5281,-3.5285,-3.5313,-3.5317,-3.5272,-3.5272,-3.5272,0,0,-3.476,-3.4798,-3.482,-3.4882,-3.4913,-3.4951,-3.4956,-3.4996,-3.5024,-3.5045,-3.5093,-3.5119,-3.5162,-3.521,-3.5233,-3.5231,-3.53,-3.5284,-3.5284,-3.5287,-3.5315,-3.532,-3.5323,-3.5274,-3.5274,-3.5273,0,0,-3.4784,-3.4816,-3.4853,-3.4885,-3.4933,-3.4959,-3.4968,-3.5019,-3.5037,-3.5086,-3.5103,-3.5137,-3.5203,-3.5233,-3.5257,-3.5295,-3.5306,-3.5307,-3.5316,-3.5343,-3.5346,-3.535,-3.5364,-3.5368,-3.531,-3.531,-3.531,0,-3.478,-3.4839,-3.487,-3.491,-3.4937,-3.496,-3.4998,-3.5027,-3.5084,-3.5102,-3.51,-3.5184,-3.5215,-3.5271,-3.5281,-3.5299,-3.531,-3.5301,-3.5344,-3.5347,-3.5351,-3.5364,-3.537,-3.531,-3.531,-3.531,-3.531,0,-3.4833,-3.4874,-3.4898,-3.4954,-3.4984,-3.5022,-3.5059,-3.5085,-3.5102,-3.5128,-3.5178,-3.5216,-3.5263,-3.5278,-3.5293,-3.5337,-3.5334,-3.5338,-3.5333,-3.5354,-3.5368,-3.5373,-3.531,-3.531,-3.531,-3.531,0,0,-3.4844,-3.4919,-3.4927,-3.4954,-3.501,-3.5041,-3.5081,-3.5128,-3.5151,-3.519,-3.5224,-3.528,-3.5284,-3.5312,-3.5331,-3.5355,-3.5383,-3.5355,-3.5357,-3.5359,-3.5435,-3.5432,-3.5437,-3.5391,-3.5392,-3.5393,-3.5431,0,-3.4875,-3.4948,-3.4978,-3.5036,-3.5075,-3.5099,-3.5133,-3.5171,-3.5197,-3.5232,-3.5261,-3.5301,-3.5303,-3.532,-3.5344,-3.5375,-3.5399,-3.5372,-3.5422,-3.5424,-3.5411,-3.5444,-3.5441,-3.5475,-3.5437,-3.5437,-3.5438,0,-3.492,-3.4962,-3.5025,-3.5077,-3.5095,-3.5125,-3.5172,-3.5206,-3.525,-3.5267,-3.5299,-3.5318,-3.536,-3.5353,-3.5411,-3.5393,-3.5415,-3.5433,-3.5435,-3.5441,-3.5432,-3.5451,-3.5487,-3.5492,-3.5447,-3.5446,-3.5445,0,-3.4922,-3.4994,-3.5041,-3.5063,-3.5126,-3.5147,-3.5174,-3.5216,-3.5244,-3.5284,-3.5303,-3.5347,-3.5371,-3.5405,-3.5435,-3.5427,-3.5491,-3.5487,-3.5507,-3.5506,-3.5518,-3.5517,-3.5558,-3.5533,-3.5533,-3.5533,-3.5533,0,-3.4954,-3.4991,-3.5044,-3.5073,-3.5116,-3.515,-3.5192,-3.522,-3.5258,-3.5293,-3.5316,-3.5347,-3.5385,-3.5422,-3.5446,-3.5491,-3.5502,-3.5517,-3.5523,-3.5515,-3.5513,-3.553,-3.5528,-3.5534,-3.5534,-3.5534,-3.5533,0,-3.4963,-3.4999,-3.5053,-3.5108,-3.5123,-3.5153,-3.52,-3.5229,-3.5257,-3.5301,-3.5313,-3.5357,-3.5401,-3.5435,-3.5492,-3.5508,-3.5557,-3.5563,-3.5542,-3.5545,-3.5564,-3.5562,-3.5617,-3.5626,-3.5594,-3.5595,-3.5595,0,-3.498,-3.501,-3.507,-3.5096,-3.5123,-3.5164,-3.5192,-3.5228,-3.5256,-3.5309,-3.5332,-3.5379,-3.5418,-3.5488,-3.5524,-3.5569,-3.5576,-3.5592,-3.5582,-3.5574,-3.5576,-3.5574,-3.5578,-3.5593,-3.5593,-3.5594,-3.5594,0,-3.5007,-3.5025,-3.5066,-3.5114,-3.5148,-3.5187,-3.5227,-3.5246,-3.5289,-3.532,-3.5367,-3.5397,-3.5457,-3.5503,-3.5552,-3.5579,-3.5593,-3.5597,-3.5604,-3.5596,-3.5583,-3.5591,-3.5546,-3.5595,-3.5595,-3.5595,-3.5595,-3.5595,-3.5021,-3.505,-3.5097,-3.5142,-3.5176,-3.5213,-3.5244,-3.5277,-3.5317,-3.537,-3.5388,-3.5437,-3.5481,-3.5548,-3.5575,-3.5613,-3.5613,-3.5623,-3.5626,-3.5628,-3.5627,-3.5578,-3.5622,-3.5622,-3.5622,-3.5622,-3.5622,0,-3.505,-3.5082,-3.5124,-3.518,-3.5216,-3.5229,-3.5273,-3.5302,-3.5345,-3.5386,-3.5425,-3.5479,-3.5525,-3.5565,-3.5613,-3.5635,-3.5643,-3.5647,-3.5645,-3.5651,-3.5624,-3.5614,-3.564,-3.564,-3.564,-3.5639,-3.5639,-3.5639,-3.5069,-3.5118,-3.5142,-3.5208,-3.524,-3.5289,-3.5313,-3.5348,-3.538,-3.5441,-3.5479,-3.5506,-3.5547,-3.5598,-3.564,-3.5651,-3.5667,-3.5669,-3.5681,-3.5655,-3.5653,-3.5651,-3.5641,-3.5672,-3.5672,-3.5705,-3.5705,-3.5706]}]]